Location: Jetmore Oil Field
(38.1181°N, 99.9337°W)
Time: 05:38:50
(UTC+00:00)

CZ-2C R/B - Pass Details

Date: 17 February 2020
Orbit: 703 x 909 km, 98.1° (Epoch: 28 March)

Event Time Altitude Azimuth Distance (km) Brightness Sun altitude
Exits shadow 01:38:45 24° 102° (ESE) 1,798 4.3 -16.3°
Maximum altitude 01:40:51 30° 67° (ENE) 1,577 4.1 -16.7°
Drops below altitude 10° 01:45:48 10° 9° (N) 2,594 5.6 -17.7°
Sets 01:48:29 0° 359° (N) 3,527 6.4 -18.2°
